Weather in Zenzevatka

Russia / Volgograd Oblast     49°48′16″N   44°32′49″E
temp.,
°C
wind,
m/s
gust,
m/s
humid.,
%
clouds,
%
prec.,
mm/h
press.,
hPa
HPBL,
m
27 july, tue
tue2700:00+19ene410480 0.0 1021200
03:00+18ene365498 0.0 102192
06:00+19ne36540 0.0 1022162
09:00+26ene44315 0.0 10211186
12:00+28ne552455 0.0 10202148
15:00+29ne34246 0.0 10192731
18:00+28nne3327100 0.0 10182532
21:00+23s2236100 0.0 101827
28 july, wed
wed2800:00+22wsw223729 0.0 101815
03:00+21w224010 0.0 101711
06:00+21n11439 0.0 101860
09:00+27ne22345 0.0 1017829
12:00+30n22283 0.0 10162653
15:00+31nnw232631 0.0 10152901
18:00+30nw332712 0.0 10142562
21:00+24ene114025 0.0 101512
29 july, thu
thu2900:00+24sse114199 0.0 101413
03:00+22ssw3344100 0.0 101435
06:00+23ssw3744100 0.0 1013158
09:00+30wsw573043 0.0 1012772
12:00+34wsw6823100 0.0 10113682
15:00+33wsw7926100 0.0 10102843
18:00+29sw373512 0.0 1009171
21:00+26wsw3345100 0.0 101035
30 july, fri
fri3000:00+25sw345070 0.0 101047
03:00+24wsw355389 0.2 101092
06:00+24sw375446 0.2 1010217
09:00+29wsw464348 0.2 1010588
12:00+34wsw672766 0.0 10093335
15:00+33w783053 0.0 10082355
18:00+26nw6958100 0.4 1008256
21:00+24w495884 0.8 1009221
31 july, sat
sat3100:00+22e227283 0.1 100929
03:00+22s2271100 0.3 101020
06:00+23sw246893 0.0 1010119
09:00+29wsw464388 0.1 1010774
12:00+33wsw56325 0.0 10092004
15:00+35w572718 0.0 10083076
18:00+33w133149 0.0 10071043
21:00+26n465566 0.0 100995